owner,sensor,date,latitude,longitude,vertical_datum,wind_speed,wind_to_direction,wind_speed_of_gust,qcFlag 
DISL,ioos:station:DISL:DISL:1,2009-11-10T00:00:00Z,30.2513,-88.0778,9.68,13.91,28.22,-9999.0,'1111122,1111122,1111122' 
DISL,ioos:station:DISL:DISL:1,2009-11-10T00:30:00Z,30.2513,-88.0778,9.68,12.92,32.48,-9999.0,'1111122,1111122,1111122' 
DISL,ioos:station:DISL:DISL:1,2009-11-10T01:00:00Z,30.2513,-88.0778,9.68,14.54,37.56,-9999.0,'1111122,1111122,1111122' 
DISL,ioos:station:DISL:DISL:1,2009-11-10T01:30:00Z,30.2513,-88.0778,9.68,14.32,32.26,-9999.0,'1111122,1111122,1111122' 
DISL,ioos:station:DISL:DISL:1,2009-11-10T02:00:00Z,30.2513,-88.0778,9.68,14.21,26.1,-9999.0,'1111122,1111122,1111122' 
DISL,ioos:station:DISL:DISL:1,2009-11-10T02:30:00Z,30.2513,-88.0778,9.68,13.41,34.96,-9999.0,'1111122,1111122,1111122' 
DISL,ioos:station:DISL:DISL:1,2009-11-10T03:00:00Z,30.2513,-88.0778,9.68,14.28,34.45,-9999.0,'1111122,1111122,1111122' 
DISL,ioos:station:DISL:DISL:1,2009-11-10T03:30:00Z,30.2513,-88.0778,9.68,13.75,37.79,-9999.0,'1111122,1111122,1111122' 
DISL,ioos:station:DISL:DISL:1,2009-11-10T04:00:00Z,30.2513,-88.0778,9.68,14.63,48.12,-9999.0,'1111122,1111122,1111122' 
DISL,ioos:station:DISL:DISL:1,2009-11-10T04:30:00Z,30.2513,-88.0778,9.68,14.73,40.87,-9999.0,'1111122,1111122,1111122' 
DISL,ioos:station:DISL:DISL:1,2009-11-10T05:30:00Z,30.2513,-88.0778,9.68,12.95,44.8,-9999.0,'1111122,1111122,1111122' 
DISL,ioos:station:DISL:DISL:1,2009-11-10T06:00:00Z,30.2513,-88.0778,9.68,11.05,49.23,-9999.0,'1111122,1111122,1111122' 
DISL,ioos:station:DISL:DISL:1,2009-11-10T06:30:00Z,30.2513,-88.0778,9.68,10.32,64.14,-9999.0,'1111122,1111122,1111122' 
DISL,ioos:station:DISL:DISL:1,2009-11-10T07:00:00Z,30.2513,-88.0778,9.68,10.53,101.1,-9999.0,'1111122,1111122,1111122' 
DISL,ioos:station:DISL:DISL:1,2009-11-10T07:30:00Z,30.2513,-88.0778,9.68,10.26,101.8,-9999.0,'1111122,1111122,1111122' 
DISL,ioos:station:DISL:DISL:1,2009-11-10T08:00:00Z,30.2513,-88.0778,9.68,8.8,119.2,-9999.0,'1111122,1111122,1111122' 
DISL,ioos:station:DISL:DISL:1,2009-11-10T08:30:00Z,30.2513,-88.0778,9.68,9.36,127.7,-9999.0,'1111122,1111122,1111122' 
DISL,ioos:station:DISL:DISL:1,2009-11-10T09:00:00Z,30.2513,-88.0778,9.68,9.22,126.0,-9999.0,'1111122,1111122,1111122' 
DISL,ioos:station:DISL:DISL:1,2009-11-10T09:30:00Z,30.2513,-88.0778,9.68,9.39,132.0,-9999.0,'1111122,1111122,1111122' 
DISL,ioos:station:DISL:DISL:1,2009-11-10T10:00:00Z,30.2513,-88.0778,9.68,10.24,123.8,-9999.0,'1111122,1111122,1111122' 
DISL,ioos:station:DISL:DISL:1,2009-11-10T10:30:00Z,30.2513,-88.0778,9.68,8.1,130.7,-9999.0,'1111122,1111122,1111122' 
DISL,ioos:station:DISL:DISL:1,2009-11-10T11:00:00Z,30.2513,-88.0778,9.68,7.8,135.4,-9999.0,'1111122,1111122,1111122' 
DISL,ioos:station:DISL:DISL:1,2009-11-10T11:30:00Z,30.2513,-88.0778,9.68,5.35,128.6,-9999.0,'1111122,1111122,1111122' 
DISL,ioos:station:DISL:DISL:1,2009-11-10T12:00:00Z,30.2513,-88.0778,9.68,10.25,318.5,-9999.0,'1111122,1111122,1111122' 
DISL,ioos:station:DISL:DISL:1,2009-11-10T12:30:00Z,30.2513,-88.0778,9.68,13.77,329.1,-9999.0,'1111122,1111122,1111122' 
DISL,ioos:station:DISL:DISL:1,2009-11-10T13:00:00Z,30.2513,-88.0778,9.68,14.53,333.1,-9999.0,'1111122,1111122,1111122' 
DISL,ioos:station:DISL:DISL:1,2009-11-10T13:30:00Z,30.2513,-88.0778,9.68,15.31,334.1,-9999.0,'1111122,1111122,1111122' 
DISL,ioos:station:DISL:DISL:1,2009-11-10T14:00:00Z,30.2513,-88.0778,9.68,14.33,335.3,-9999.0,'1111122,1111122,1111122' 
DISL,ioos:station:DISL:DISL:1,2009-11-10T14:30:00Z,30.2513,-88.0778,9.68,13.93,338.0,-9999.0,'1111122,1111122,1111122' 
DISL,ioos:station:DISL:DISL:1,2009-11-10T15:00:00Z,30.2513,-88.0778,9.68,13.01,332.3,-9999.0,'1111122,1111122,1111122' 
DISL,ioos:station:DISL:DISL:1,2009-11-10T15:30:00Z,30.2513,-88.0778,9.68,12.25,328.0,-9999.0,'1111122,1111122,1111122' 
DISL,ioos:station:DISL:DISL:1,2009-11-10T16:00:00Z,30.2513,-88.0778,9.68,12.23,329.1,-9999.0,'1111122,1111122,1111122' 
DISL,ioos:station:DISL:DISL:1,2009-11-10T16:30:00Z,30.2513,-88.0778,9.68,11.69,324.5,-9999.0,'1111122,1111122,1111122' 
DISL,ioos:station:DISL:DISL:1,2009-11-10T17:00:00Z,30.2513,-88.0778,9.68,11.74,322.1,-9999.0,'1111122,1111122,1111122' 
DISL,ioos:station:DISL:DISL:1,2009-11-10T17:30:00Z,30.2513,-88.0778,9.68,12.17,325.5,-9999.0,'1111122,1111122,1111122' 
DISL,ioos:station:DISL:DISL:1,2009-11-10T18:00:00Z,30.2513,-88.0778,9.68,11.48,325.5,-9999.0,'1111122,1111122,1111122' 
DISL,ioos:station:DISL:DISL:1,2009-11-10T18:30:00Z,30.2513,-88.0778,9.68,12.51,329.5,-9999.0,'1111122,1111122,1111122' 
DISL,ioos:station:DISL:DISL:1,2009-11-10T19:00:00Z,30.2513,-88.0778,9.68,12.02,325.3,-9999.0,'1111122,1111122,1111122' 
DISL,ioos:station:DISL:DISL:1,2009-11-10T19:30:00Z,30.2513,-88.0778,9.68,12.0,326.1,-9999.0,'1111122,1111122,1111122' 
DISL,ioos:station:DISL:DISL:1,2009-11-10T20:00:00Z,30.2513,-88.0778,9.68,11.46,326.3,-9999.0,'1111122,1111122,1111122' 
DISL,ioos:station:DISL:DISL:1,2009-11-10T20:30:00Z,30.2513,-88.0778,9.68,12.32,324.7,-9999.0,'1111122,1111122,1111122' 
DISL,ioos:station:DISL:DISL:1,2009-11-10T21:00:00Z,30.2513,-88.0778,9.68,12.28,329.8,-9999.0,'1111122,1111122,1111122' 
DISL,ioos:station:DISL:DISL:1,2009-11-10T21:30:00Z,30.2513,-88.0778,9.68,13.76,337.3,-9999.0,'1111122,1111122,1111122' 
DISL,ioos:station:DISL:DISL:1,2009-11-10T22:00:00Z,30.2513,-88.0778,9.68,14.32,337.1,-9999.0,'1111122,1111122,1111122' 
DISL,ioos:station:DISL:DISL:1,2009-11-10T22:30:00Z,30.2513,-88.0778,9.68,14.73,339.1,-9999.0,'1111122,1111122,1111122' 
DISL,ioos:station:DISL:DISL:1,2009-11-10T23:00:00Z,30.2513,-88.0778,9.68,14.57,343.4,-9999.0,'1111122,1111122,1111122' 
DISL,ioos:station:DISL:DISL:1,2009-11-10T23:30:00Z,30.2513,-88.0778,9.68,14.79,344.2,-9999.0,'1111122,1111122,1111122' 
DISL,ioos:station:DISL:DISL:1,2009-11-11T00:00:00Z,30.2513,-88.0778,9.68,13.76,336.3,-9999.0,'1111122,1111122,1111122' 
DISL,ioos:station:DISL:DISL:1,2009-11-11T00:30:00Z,30.2513,-88.0778,9.68,11.8,325.6,-9999.0,'1111122,1111122,1111122' 
DISL,ioos:station:DISL:DISL:1,2009-11-11T01:00:00Z,30.2513,-88.0778,9.68,11.85,333.0,-9999.0,'1111122,1111122,1111122' 
DISL,ioos:station:DISL:DISL:1,2009-11-11T01:30:00Z,30.2513,-88.0778,9.68,11.78,328.3,-9999.0,'1111122,1111122,1111122' 
DISL,ioos:station:DISL:DISL:1,2009-11-11T02:00:00Z,30.2513,-88.0778,9.68,12.24,334.8,-9999.0,'1111122,1111122,1111122' 
DISL,ioos:station:DISL:DISL:1,2009-11-11T02:30:00Z,30.2513,-88.0778,9.68,11.87,330.2,-9999.0,'1111122,1111122,1111122' 
DISL,ioos:station:DISL:DISL:1,2009-11-11T03:00:00Z,30.2513,-88.0778,9.68,11.2,331.5,-9999.0,'1111122,1111122,1111122' 
DISL,ioos:station:DISL:DISL:1,2009-11-11T03:30:00Z,30.2513,-88.0778,9.68,10.87,337.0,-9999.0,'1111122,1111122,1111122' 
DISL,ioos:station:DISL:DISL:1,2009-11-11T04:00:00Z,30.2513,-88.0778,9.68,11.37,332.8,-9999.0,'1111122,1111122,1111122' 
DISL,ioos:station:DISL:DISL:1,2009-11-11T04:30:00Z,30.2513,-88.0778,9.68,11.02,332.4,-9999.0,'1111122,1111122,1111122' 
DISL,ioos:station:DISL:DISL:1,2009-11-11T05:00:00Z,30.2513,-88.0778,9.68,10.4,327.2,-9999.0,'1111122,1111122,1111122' 
DISL,ioos:station:DISL:DISL:1,2009-11-11T05:30:00Z,30.2513,-88.0778,9.68,10.46,326.8,-9999.0,'1111122,1111122,1111122' 
DISL,ioos:station:DISL:DISL:1,2009-11-11T06:00:00Z,30.2513,-88.0778,9.68,10.3,333.9,-9999.0,'1111122,1111122,1111122' 
DISL,ioos:station:DISL:DISL:1,2009-11-11T06:30:00Z,30.2513,-88.0778,9.68,10.45,334.9,-9999.0,'1111122,1111122,1111122' 
DISL,ioos:station:DISL:DISL:1,2009-11-11T07:00:00Z,30.2513,-88.0778,9.68,9.42,331.9,-9999.0,'1111122,1111122,1111122' 
DISL,ioos:station:DISL:DISL:1,2009-11-11T07:30:00Z,30.2513,-88.0778,9.68,9.88,327.6,-9999.0,'1111122,1111122,1111122' 
DISL,ioos:station:DISL:DISL:1,2009-11-11T08:30:00Z,30.2513,-88.0778,9.68,9.82,331.2,-9999.0,'1111122,1111122,1111122' 
DISL,ioos:station:DISL:DISL:1,2009-11-11T09:00:00Z,30.2513,-88.0778,9.68,9.95,324.2,-9999.0,'1111122,1111122,1111122' 
DISL,ioos:station:DISL:DISL:1,2009-11-11T09:30:00Z,30.2513,-88.0778,9.68,11.2,333.6,-9999.0,'1111122,1111122,1111122' 
DISL,ioos:station:DISL:DISL:1,2009-11-11T10:00:00Z,30.2513,-88.0778,9.68,9.62,324.1,-9999.0,'1111122,1111122,1111122' 
DISL,ioos:station:DISL:DISL:1,2009-11-11T10:30:00Z,30.2513,-88.0778,9.68,9.45,326.4,-9999.0,'1111122,1111122,1111122' 
DISL,ioos:station:DISL:DISL:1,2009-11-11T11:00:00Z,30.2513,-88.0778,9.68,9.51,328.1,-9999.0,'1111122,1111122,1111122' 
DISL,ioos:station:DISL:DISL:1,2009-11-11T11:30:00Z,30.2513,-88.0778,9.68,11.26,337.3,-9999.0,'1111122,1111122,1111122' 
DISL,ioos:station:DISL:DISL:1,2009-11-11T12:00:00Z,30.2513,-88.0778,9.68,10.86,336.3,-9999.0,'1111122,1111122,1111122' 
DISL,ioos:station:DISL:DISL:1,2009-11-11T12:30:00Z,30.2513,-88.0778,9.68,10.36,335.9,-9999.0,'1111122,1111122,1111122' 
DISL,ioos:station:DISL:DISL:1,2009-11-11T13:00:00Z,30.2513,-88.0778,9.68,10.54,335.8,-9999.0,'1111122,1111122,1111122' 
DISL,ioos:station:DISL:DISL:1,2009-11-11T13:30:00Z,30.2513,-88.0778,9.68,10.11,340.7,-9999.0,'1111122,1111122,1111122' 
DISL,ioos:station:DISL:DISL:1,2009-11-11T14:00:00Z,30.2513,-88.0778,9.68,10.22,339.4,-9999.0,'1111122,1111122,1111122' 
DISL,ioos:station:DISL:DISL:1,2009-11-11T15:00:00Z,30.2513,-88.0778,9.68,10.43,346.6,-9999.0,'1111122,1111122,1111122' 
DISL,ioos:station:DISL:DISL:1,2009-11-11T16:00:00Z,30.2513,-88.0778,9.68,7.89,345.5,-9999.0,'1111122,1111122,1111122' 
DISL,ioos:station:DISL:DISL:1,2009-11-11T16:30:00Z,30.2513,-88.0778,9.68,9.1,350.6,-9999.0,'1111122,1111122,1111122' 
DISL,ioos:station:DISL:DISL:1,2009-11-11T17:00:00Z,30.2513,-88.0778,9.68,6.83,340.5,-9999.0,'1111122,1111122,1111122' 
DISL,ioos:station:DISL:DISL:1,2009-11-11T17:30:00Z,30.2513,-88.0778,9.68,7.63,340.9,-9999.0,'1111122,1111122,1111122' 
DISL,ioos:station:DISL:DISL:1,2009-11-11T18:00:00Z,30.2513,-88.0778,9.68,8.21,349.3,-9999.0,'1111122,1111122,1111122' 
DISL,ioos:station:DISL:DISL:1,2009-11-11T18:30:00Z,30.2513,-88.0778,9.68,7.51,354.0,-9999.0,'1111122,1111122,1111122' 
DISL,ioos:station:DISL:DISL:1,2009-11-11T19:00:00Z,30.2513,-88.0778,9.68,7.27,358.1,-9999.0,'1111122,1111122,1111122' 
DISL,ioos:station:DISL:DISL:1,2009-11-11T19:30:00Z,30.2513,-88.0778,9.68,6.27,7.69,-9999.0,'1111122,1111122,1111122' 
DISL,ioos:station:DISL:DISL:1,2009-11-11T20:00:00Z,30.2513,-88.0778,9.68,6.31,17.07,-9999.0,'1111122,1111122,1111122' 
DISL,ioos:station:DISL:DISL:1,2009-11-11T20:30:00Z,30.2513,-88.0778,9.68,7.25,10.11,-9999.0,'1111122,1111122,1111122' 
DISL,ioos:station:DISL:DISL:1,2009-11-11T21:00:00Z,30.2513,-88.0778,9.68,7.82,10.4,-9999.0,'1111122,1111122,1111122' 
DISL,ioos:station:DISL:DISL:1,2009-11-11T21:30:00Z,30.2513,-88.0778,9.68,6.56,11.55,-9999.0,'1111122,1111122,1111122' 
DISL,ioos:station:DISL:DISL:1,2009-11-11T22:00:00Z,30.2513,-88.0778,9.68,5.8,9.8,-9999.0,'1111122,1111122,1111122' 
DISL,ioos:station:DISL:DISL:1,2009-11-11T22:30:00Z,30.2513,-88.0778,9.68,6.18,6.328,-9999.0,'1111122,1111122,1111122' 
DISL,ioos:station:DISL:DISL:1,2009-11-11T23:00:00Z,30.2513,-88.0778,9.68,6.67,6.647,-9999.0,'1111122,1111122,1111122' 
DISL,ioos:station:DISL:DISL:1,2009-11-11T23:30:00Z,30.2513,-88.0778,9.68,5.76,358.9,-9999.0,'1111122,1111122,1111122' 
DISL,ioos:station:DISL:DISL:1,2009-11-12T00:00:00Z,30.2513,-88.0778,9.68,7.85,356.3,-9999.0,'1111122,1111122,1111122' 
DISL,ioos:station:DISL:DISL:1,2009-11-12T00:30:00Z,30.2513,-88.0778,9.68,8.48,352.6,-9999.0,'1111122,1111122,1111122' 
DISL,ioos:station:DISL:DISL:1,2009-11-12T01:00:00Z,30.2513,-88.0778,9.68,8.34,343.8,-9999.0,'1111122,1111122,1111122' 
DISL,ioos:station:DISL:DISL:1,2009-11-12T01:30:00Z,30.2513,-88.0778,9.68,7.56,335.1,-9999.0,'1111122,1111122,1111122' 
DISL,ioos:station:DISL:DISL:1,2009-11-12T02:00:00Z,30.2513,-88.0778,9.68,7.51,335.1,-9999.0,'1111122,1111122,1111122' 
DISL,ioos:station:DISL:DISL:1,2009-11-12T02:30:00Z,30.2513,-88.0778,9.68,7.75,345.1,-9999.0,'1111122,1111122,1111122' 
DISL,ioos:station:DISL:DISL:1,2009-11-12T03:00:00Z,30.2513,-88.0778,9.68,8.54,349.1,-9999.0,'1111122,1111122,1111122' 
DISL,ioos:station:DISL:DISL:1,2009-11-12T03:30:00Z,30.2513,-88.0778,9.68,8.89,347.3,-9999.0,'1111122,1111122,1111122' 
DISL,ioos:station:DISL:DISL:1,2009-11-12T04:00:00Z,30.2513,-88.0778,9.68,7.93,348.0,-9999.0,'1111122,1111122,1111122' 
DISL,ioos:station:DISL:DISL:1,2009-11-12T04:30:00Z,30.2513,-88.0778,9.68,6.63,340.0,-9999.0,'1111122,1111122,1111122' 
DISL,ioos:station:DISL:DISL:1,2009-11-12T05:00:00Z,30.2513,-88.0778,9.68,6.1,331.9,-9999.0,'1111122,1111122,1111122' 
DISL,ioos:station:DISL:DISL:1,2009-11-12T05:30:00Z,30.2513,-88.0778,9.68,6.69,327.4,-9999.0,'1111122,1111122,1111122' 
DISL,ioos:station:DISL:DISL:1,2009-11-12T06:00:00Z,30.2513,-88.0778,9.68,5.89,327.6,-9999.0,'1111122,1111122,1111122' 
DISL,ioos:station:DISL:DISL:1,2009-11-12T06:30:00Z,30.2513,-88.0778,9.68,6.47,326.0,-9999.0,'1111122,1111122,1111122' 
DISL,ioos:station:DISL:DISL:1,2009-11-12T07:00:00Z,30.2513,-88.0778,9.68,7.25,335.8,-9999.0,'1111122,1111122,1111122' 
DISL,ioos:station:DISL:DISL:1,2009-11-12T07:30:00Z,30.2513,-88.0778,9.68,7.51,334.6,-9999.0,'1111122,1111122,1111122' 
DISL,ioos:station:DISL:DISL:1,2009-11-12T08:00:00Z,30.2513,-88.0778,9.68,7.66,335.4,-9999.0,'1111122,1111122,1111122' 
DISL,ioos:station:DISL:DISL:1,2009-11-12T08:30:00Z,30.2513,-88.0778,9.68,7.42,339.7,-9999.0,'1111122,1111122,1111122' 
DISL,ioos:station:DISL:DISL:1,2009-11-12T09:00:00Z,30.2513,-88.0778,9.68,7.31,343.9,-9999.0,'1111122,1111122,1111122' 
DISL,ioos:station:DISL:DISL:1,2009-11-12T09:30:00Z,30.2513,-88.0778,9.68,6.84,334.2,-9999.0,'1111122,1111122,1111122' 
DISL,ioos:station:DISL:DISL:1,2009-11-12T10:00:00Z,30.2513,-88.0778,9.68,7.77,355.1,-9999.0,'1111122,1111122,1111122' 
DISL,ioos:station:DISL:DISL:1,2009-11-12T10:30:00Z,30.2513,-88.0778,9.68,8.57,356.2,-9999.0,'1111122,1111122,1111122' 
DISL,ioos:station:DISL:DISL:1,2009-11-12T11:00:00Z,30.2513,-88.0778,9.68,8.77,357.5,-9999.0,'1111122,1111122,1111122' 
DISL,ioos:station:DISL:DISL:1,2009-11-12T11:30:00Z,30.2513,-88.0778,9.68,8.74,356.5,-9999.0,'1111122,1111122,1111122' 
DISL,ioos:station:DISL:DISL:1,2009-11-12T12:00:00Z,30.2513,-88.0778,9.68,8.35,358.8,-9999.0,'1111122,1111122,1111122' 
DISL,ioos:station:DISL:DISL:1,2009-11-12T12:30:00Z,30.2513,-88.0778,9.68,7.39,353.9,-9999.0,'1111122,1111122,1111122' 
DISL,ioos:station:DISL:DISL:1,2009-11-12T13:00:00Z,30.2513,-88.0778,9.68,6.91,0.37,-9999.0,'1111122,1111122,1111122' 
DISL,ioos:station:DISL:DISL:1,2009-11-12T13:30:00Z,30.2513,-88.0778,9.68,6.3,347.7,-9999.0,'1111122,1111122,1111122' 
DISL,ioos:station:DISL:DISL:1,2009-11-12T14:00:00Z,30.2513,-88.0778,9.68,5.26,343.7,-9999.0,'1111122,1111122,1111122' 
DISL,ioos:station:DISL:DISL:1,2009-11-12T14:30:00Z,30.2513,-88.0778,9.68,6.83,348.3,-9999.0,'1111122,1111122,1111122' 
DISL,ioos:station:DISL:DISL:1,2009-11-12T15:00:00Z,30.2513,-88.0778,9.68,6.69,9.83,-9999.0,'1111122,1111122,1111122' 
DISL,ioos:station:DISL:DISL:1,2009-11-12T15:30:00Z,30.2513,-88.0778,9.68,5.85,0.706,-9999.0,'1111122,1111122,1111122' 
DISL,ioos:station:DISL:DISL:1,2009-11-12T16:00:00Z,30.2513,-88.0778,9.68,5.79,351.1,-9999.0,'1111122,1111122,1111122' 
DISL,ioos:station:DISL:DISL:1,2009-11-12T16:30:00Z,30.2513,-88.0778,9.68,6.54,349.7,-9999.0,'1111122,1111122,1111122' 
DISL,ioos:station:DISL:DISL:1,2009-11-12T17:00:00Z,30.2513,-88.0778,9.68,6.93,346.3,-9999.0,'1111122,1111122,1111122' 
DISL,ioos:station:DISL:DISL:1,2009-11-12T17:30:00Z,30.2513,-88.0778,9.68,7.0,353.5,-9999.0,'1111122,1111122,1111122' 
DISL,ioos:station:DISL:DISL:1,2009-11-12T18:00:00Z,30.2513,-88.0778,9.68,7.04,12.9,-9999.0,'1111122,1111122,1111122' 
DISL,ioos:station:DISL:DISL:1,2009-11-12T18:30:00Z,30.2513,-88.0778,9.68,5.51,11.81,-9999.0,'1111122,1111122,1111122' 
DISL,ioos:station:DISL:DISL:1,2009-11-12T19:00:00Z,30.2513,-88.0778,9.68,4.83,24.47,-9999.0,'1111122,1111122,1111122' 
DISL,ioos:station:DISL:DISL:1,2009-11-12T19:30:00Z,30.2513,-88.0778,9.68,4.69,13.37,-9999.0,'1111122,1111122,1111122' 
DISL,ioos:station:DISL:DISL:1,2009-11-12T20:00:00Z,30.2513,-88.0778,9.68,4.79,11.92,-9999.0,'1111122,1111122,1111122' 
DISL,ioos:station:DISL:DISL:1,2009-11-12T20:30:00Z,30.2513,-88.0778,9.68,5.06,16.09,-9999.0,'1111122,1111122,1111122' 
DISL,ioos:station:DISL:DISL:1,2009-11-12T21:00:00Z,30.2513,-88.0778,9.68,5.38,7.7,-9999.0,'1111122,1111122,1111122' 
DISL,ioos:station:DISL:DISL:1,2009-11-12T21:30:00Z,30.2513,-88.0778,9.68,4.94,2.426,-9999.0,'1111122,1111122,1111122' 
DISL,ioos:station:DISL:DISL:1,2009-11-12T22:00:00Z,30.2513,-88.0778,9.68,5.05,7.23,-9999.0,'1111122,1111122,1111122' 
DISL,ioos:station:DISL:DISL:1,2009-11-12T22:30:00Z,30.2513,-88.0778,9.68,6.22,325.3,-9999.0,'1111122,1111122,1111122' 
DISL,ioos:station:DISL:DISL:1,2009-11-12T23:00:00Z,30.2513,-88.0778,9.68,5.79,329.6,-9999.0,'1111122,1111122,1111122' 
DISL,ioos:station:DISL:DISL:1,2009-11-12T23:30:00Z,30.2513,-88.0778,9.68,5.64,332.8,-9999.0,'1111122,1111122,1111122' 
DISL,ioos:station:DISL:DISL:1,2009-11-13T00:00:00Z,30.2513,-88.0778,9.68,4.82,339.1,-9999.0,'1111122,1111122,1111122' 
DISL,ioos:station:DISL:DISL:1,2009-11-13T00:30:00Z,30.2513,-88.0778,9.68,4.78,325.0,-9999.0,'1111122,1111122,1111122' 
DISL,ioos:station:DISL:DISL:1,2009-11-13T01:00:00Z,30.2513,-88.0778,9.68,4.53,333.7,-9999.0,'1111122,1111122,1111122' 
DISL,ioos:station:DISL:DISL:1,2009-11-13T01:30:00Z,30.2513,-88.0778,9.68,4.55,340.2,-9999.0,'1111122,1111122,1111122' 
DISL,ioos:station:DISL:DISL:1,2009-11-13T02:00:00Z,30.2513,-88.0778,9.68,5.2,340.9,-9999.0,'1111122,1111122,1111122' 
DISL,ioos:station:DISL:DISL:1,2009-11-13T02:30:00Z,30.2513,-88.0778,9.68,5.04,346.1,-9999.0,'1111122,1111122,1111122' 
DISL,ioos:station:DISL:DISL:1,2009-11-13T03:00:00Z,30.2513,-88.0778,9.68,4.9,350.1,-9999.0,'1111122,1111122,1111122' 
DISL,ioos:station:DISL:DISL:1,2009-11-13T03:30:00Z,30.2513,-88.0778,9.68,5.35,1.366,-9999.0,'1111122,1111122,1111122' 
DISL,ioos:station:DISL:DISL:1,2009-11-13T04:00:00Z,30.2513,-88.0778,9.68,4.17,355.7,-9999.0,'1111122,1111122,1111122' 
DISL,ioos:station:DISL:DISL:1,2009-11-13T04:30:00Z,30.2513,-88.0778,9.68,4.57,331.8,-9999.0,'1111122,1111122,1111122' 
DISL,ioos:station:DISL:DISL:1,2009-11-13T05:00:00Z,30.2513,-88.0778,9.68,4.08,342.9,-9999.0,'1111122,1111122,1111122' 
DISL,ioos:station:DISL:DISL:1,2009-11-13T05:30:00Z,30.2513,-88.0778,9.68,3.86,346.2,-9999.0,'1111122,1111122,1111122' 
DISL,ioos:station:DISL:DISL:1,2009-11-13T06:00:00Z,30.2513,-88.0778,9.68,3.63,341.0,-9999.0,'1111122,1111122,1111122' 
DISL,ioos:station:DISL:DISL:1,2009-11-13T06:30:00Z,30.2513,-88.0778,9.68,3.13,343.6,-9999.0,'1111122,1111122,1111122' 
DISL,ioos:station:DISL:DISL:1,2009-11-13T07:00:00Z,30.2513,-88.0778,9.68,3.31,337.2,-9999.0,'1111122,1111122,1111122' 
DISL,ioos:station:DISL:DISL:1,2009-11-13T07:30:00Z,30.2513,-88.0778,9.68,3.0,326.4,-9999.0,'1111122,1111122,1111122' 
DISL,ioos:station:DISL:DISL:1,2009-11-13T08:00:00Z,30.2513,-88.0778,9.68,2.55,325.7,-9999.0,'1111122,1111122,1111122' 
DISL,ioos:station:DISL:DISL:1,2009-11-13T08:30:00Z,30.2513,-88.0778,9.68,2.57,336.8,-9999.0,'1111122,1111122,1111122' 
DISL,ioos:station:DISL:DISL:1,2009-11-13T09:00:00Z,30.2513,-88.0778,9.68,3.26,332.1,-9999.0,'1111122,1111122,1111122' 
DISL,ioos:station:DISL:DISL:1,2009-11-13T09:30:00Z,30.2513,-88.0778,9.68,2.92,315.9,-9999.0,'1111122,1111122,1111122' 
DISL,ioos:station:DISL:DISL:1,2009-11-13T10:00:00Z,30.2513,-88.0778,9.68,3.58,318.8,-9999.0,'1111122,1111122,1111122' 
DISL,ioos:station:DISL:DISL:1,2009-11-13T10:30:00Z,30.2513,-88.0778,9.68,2.94,332.1,-9999.0,'1111122,1111122,1111122' 
DISL,ioos:station:DISL:DISL:1,2009-11-13T11:00:00Z,30.2513,-88.0778,9.68,2.44,346.4,-9999.0,'1111122,1111122,1111122' 
DISL,ioos:station:DISL:DISL:1,2009-11-13T11:30:00Z,30.2513,-88.0778,9.68,2.68,327.3,-9999.0,'1111122,1111122,1111122' 
DISL,ioos:station:DISL:DISL:1,2009-11-13T12:00:00Z,30.2513,-88.0778,9.68,3.19,322.5,-9999.0,'1111122,1111122,1111122' 
DISL,ioos:station:DISL:DISL:1,2009-11-13T12:30:00Z,30.2513,-88.0778,9.68,2.74,335.3,-9999.0,'1111122,1111122,1111122' 
DISL,ioos:station:DISL:DISL:1,2009-11-13T13:00:00Z,30.2513,-88.0778,9.68,2.79,349.3,-9999.0,'1111122,1111122,1111122' 
DISL,ioos:station:DISL:DISL:1,2009-11-13T13:30:00Z,30.2513,-88.0778,9.68,2.47,8.29,-9999.0,'1111122,1111122,1111122' 
DISL,ioos:station:DISL:DISL:1,2009-11-13T14:00:00Z,30.2513,-88.0778,9.68,2.57,348.9,-9999.0,'1111122,1111122,1111122' 
DISL,ioos:station:DISL:DISL:1,2009-11-13T14:30:00Z,30.2513,-88.0778,9.68,2.14,334.2,-9999.0,'1111122,1111122,1111122' 
DISL,ioos:station:DISL:DISL:1,2009-11-13T15:00:00Z,30.2513,-88.0778,9.68,1.94,343.0,-9999.0,'1111122,1111122,1111122' 
DISL,ioos:station:DISL:DISL:1,2009-11-13T15:30:00Z,30.2513,-88.0778,9.68,2.11,346.3,-9999.0,'1111122,1111122,1111122' 
DISL,ioos:station:DISL:DISL:1,2009-11-13T16:00:00Z,30.2513,-88.0778,9.68,1.96,343.6,-9999.0,'1111122,1111122,1111122' 
DISL,ioos:station:DISL:DISL:1,2009-11-13T16:30:00Z,30.2513,-88.0778,9.68,1.77,348.3,-9999.0,'1111122,1111122,1111122' 
DISL,ioos:station:DISL:DISL:1,2009-11-13T17:00:00Z,30.2513,-88.0778,9.68,1.23,22.02,-9999.0,'1111122,1111122,1111122' 
DISL,ioos:station:DISL:DISL:1,2009-11-13T17:30:00Z,30.2513,-88.0778,9.68,2.24,316.8,-9999.0,'1111122,1111122,1111122' 
DISL,ioos:station:DISL:DISL:1,2009-11-13T18:00:00Z,30.2513,-88.0778,9.68,3.67,295.8,-9999.0,'1111122,1111122,1111122' 
DISL,ioos:station:DISL:DISL:1,2009-11-13T18:30:00Z,30.2513,-88.0778,9.68,4.2,290.2,-9999.0,'1111122,1111122,1111122' 
DISL,ioos:station:DISL:DISL:1,2009-11-13T19:00:00Z,30.2513,-88.0778,9.68,3.5,257.2,-9999.0,'1111122,1111122,1111122' 
DISL,ioos:station:DISL:DISL:1,2009-11-13T19:30:00Z,30.2513,-88.0778,9.68,3.29,243.4,-9999.0,'1111122,1111122,1111122' 
DISL,ioos:station:DISL:DISL:1,2009-11-13T20:00:00Z,30.2513,-88.0778,9.68,3.46,267.7,-9999.0,'1111122,1111122,1111122' 
DISL,ioos:station:DISL:DISL:1,2009-11-13T20:30:00Z,30.2513,-88.0778,9.68,4.67,278.8,-9999.0,'1111122,1111122,1111122' 
DISL,ioos:station:DISL:DISL:1,2009-11-13T21:00:00Z,30.2513,-88.0778,9.68,4.84,275.9,-9999.0,'1111122,1111122,1111122' 
DISL,ioos:station:DISL:DISL:1,2009-11-13T21:30:00Z,30.2513,-88.0778,9.68,4.66,274.5,-9999.0,'1111122,1111122,1111122' 
DISL,ioos:station:DISL:DISL:1,2009-11-13T22:00:00Z,30.2513,-88.0778,9.68,3.57,262.6,-9999.0,'1111122,1111122,1111122' 
DISL,ioos:station:DISL:DISL:1,2009-11-13T22:30:00Z,30.2513,-88.0778,9.68,2.77,258.1,-9999.0,'1111122,1111122,1111122' 
DISL,ioos:station:DISL:DISL:1,2009-11-13T23:00:00Z,30.2513,-88.0778,9.68,1.91,254.9,-9999.0,'1111122,1111122,1111122' 
DISL,ioos:station:DISL:DISL:1,2009-11-13T23:30:00Z,30.2513,-88.0778,9.68,2.1,263.2,-9999.0,'1111122,1111122,1111122' 
DISL,ioos:station:DISL:DISL:1,2009-11-14T00:00:00Z,30.2513,-88.0778,9.68,2.4,268.0,-9999.0,'1111122,1111122,1111122' 
DISL,ioos:station:DISL:DISL:1,2009-11-14T00:30:00Z,30.2513,-88.0778,9.68,1.84,259.2,-9999.0,'1111122,1111122,1111122' 
DISL,ioos:station:DISL:DISL:1,2009-11-14T01:00:00Z,30.2513,-88.0778,9.68,1.49,261.4,-9999.0,'1111122,1111122,1111122' 
DISL,ioos:station:DISL:DISL:1,2009-11-14T01:30:00Z,30.2513,-88.0778,9.68,1.67,265.3,-9999.0,'1111122,1111122,1111122' 
DISL,ioos:station:DISL:DISL:1,2009-11-14T02:00:00Z,30.2513,-88.0778,9.68,0.85,272.8,-9999.0,'1111122,1111122,1111122' 
DISL,ioos:station:DISL:DISL:1,2009-11-14T02:30:00Z,30.2513,-88.0778,9.68,0.99,274.3,-9999.0,'1111122,1111122,1111122' 
DISL,ioos:station:DISL:DISL:1,2009-11-14T03:00:00Z,30.2513,-88.0778,9.68,1.07,260.2,-9999.0,'1111122,1111122,1111122' 
DISL,ioos:station:DISL:DISL:1,2009-11-14T03:30:00Z,30.2513,-88.0778,9.68,1.69,271.5,-9999.0,'1111122,1111122,1111122' 
DISL,ioos:station:DISL:DISL:1,2009-11-14T04:00:00Z,30.2513,-88.0778,9.68,1.64,276.4,-9999.0,'1111122,1111122,1111122' 
DISL,ioos:station:DISL:DISL:1,2009-11-14T04:30:00Z,30.2513,-88.0778,9.68,1.23,283.5,-9999.0,'1111122,1111122,1111122' 
DISL,ioos:station:DISL:DISL:1,2009-11-14T05:00:00Z,30.2513,-88.0778,9.68,0.66,273.8,-9999.0,'1111122,1111122,1111122' 
DISL,ioos:station:DISL:DISL:1,2009-11-14T05:30:00Z,30.2513,-88.0778,9.68,1.1,261.1,-9999.0,'1111122,1111122,1111122' 